Regional Weather Roundup
Issued by NWS Albany, NY

Home | Current Version | Previous Version | Text Only | Print | Product List | Glossary On
Versions: 1 2 3 4 5 6 7 8 9 10 11 12 13 14 15 16 17 18 19 20 21 22 23 24 25 26 27 28 29 30 31 32 33 34 35 36 37 38 39 40 41 42 43 44 45 46 47 48 49 50
015
ASUS41 KALY 190910
RWRALY

NEW YORK STATE HOURLY WEATHER ROUNDUP
NATIONAL WEATHER SERVICE ALBANY NY
500 AM EDT THU OCT 19 2017

NOTE: "FAIR" INDICATES FEW OR NO CLOUDS BELOW 12,000 FEET WITH NO
SIGNIFICANT WEATHER AND/OR NO OBSTRUCTIONS TO VISIBILITY.

NYZ032-033-038>043-046>054-057>066-NYZ062>081-082-084-191000-
EAST


CITY           SKY/WX    TMP DP  RH WIND       PRES   REMARKS
ALBANY         PTCLDY    51  46  83 S3        30.21S
GLENS FALLS    CLEAR     38  35  89 CALM      30.19S
POUGHKEEPSIE   CLEAR     43  41  93 CALM      30.23S
NEWBURGH       CLEAR     46  45  93 CALM      30.25S
MONTGOMERY     CLEAR     42  41  96 CALM      30.23S FOG
WHITE PLAINS   PTCLDY    47  45  93 CALM      30.24S
ISLIP          CLEAR     50  48  93 CALM      30.26R
NEW YORK CITY  PTCLDY    59  46  62 SW5       30.25S
CENTRAL PARK   CLEAR     57  45  64 VRB3      30.28S
$$

NYZ005>009-017-018-044>046-055-056-191000-
CENTRAL


CITY           SKY/WX    TMP DP  RH WIND       PRES   REMARKS
FULTON           N/A    N/A N/A N/A MISG      30.12S
SYRACUSE       CLEAR     47  43  86 E3        30.13S
ROME           CLEAR     45  42  89 E3        30.17S
ELMIRA         CLEAR     37  37 100 CALM      30.17F
BINGHAMTON     CLEAR     50  40  68 S8        30.18F
MONTICELLO     CLEAR     41  40  96 NE3       30.25S
$$

NYZ026>034-041>043-087-191000-
NORTH


CITY           SKY/WX    TMP DP  RH WIND       PRES   REMARKS
WATERTOWN      CLEAR     57  44  62 VRB5      30.09S
FORT DRUM      NOT AVBL
OGDENSBURG     FAIR      52  45  77 S6        30.06S
MASSENA        CLEAR     52  44  74 SW7       30.06F
SARANAC LAKE   CLEAR     51  43  74 SW8       30.12S
PLATTSBURGH    CLEAR     41  38  89 CALM      30.10S
$$

NYZ001>004-010>016-019>021-085-191000-
WEST


CITY           SKY/WX    TMP DP  RH WIND       PRES   REMARKS
NIAGARA FALLS    N/A     59  45  59 SW12      30.07F
BUFFALO        CLEAR     56  40  55 SW15      30.08F
DUNKIRK        CLEAR     56  41  57 S14       30.11F
JAMESTOWN      CLEAR     46  39  76 S7        30.16F
WELLSVILLE     CLEAR     52  38  58 SW12      30.18S
ROCHESTER      CLEAR     56  42  59 SW14G23   30.10S
PENN YAN       CLEAR     54  42  64 SW12      30.14S
$$

             KEY
       WCI = WIND CHILL INDEX
       VSB = VISIBILITY
       HX  = HEAT INDEX
$$




USA.gov is the U.S. government's official web portal to all federal, state and local government web resources and services.